Location: Colleton State Park
(33.0623°N, 80.6164°W)
Time: 22:19:53
(UTC-04:00)

ISS - Visible Passes

Search period start: 24 May 2019 00:00
Search period end: 03 June 2019 00:00
Orbit: 408 x 418 km, 51.6° (Epoch: 25 May)

Date Brightness Start Highest point End Pass type
(mag) Time Alt. Az. Time Alt. Az. Time Alt. Az.
29 May -0.5 23:36:49 10° N 23:37:24 12° N 23:37:24 12° N visible
30 May -0.8 22:48:23 10° NNE 22:49:18 11° NNE 22:49:31 11° NNE visible
31 May -0.7 23:33:38 10° NNW 23:34:28 16° NNW 23:34:28 16° NNW visible
01 Jun -1.7 22:44:24 10° NNW 22:46:39 22° NNE 22:46:39 22° NNE visible
02 Jun -1.3 21:55:27 10° N 21:57:24 15° NNE 21:58:51 12° ENE visible
02 Jun -0.7 23:31:01 10° NW 23:31:40 15° WNW 23:31:40 15° WNW visible
